EHI
0 0 0 0 0 0 0 0 0 0 0 0 0 0 0 0 0 0 0 0 1 1 1 2 6 7 7 7 7 7 5 4 3 3 1 0 0 0 0 0 0 0 0 0 0 0 0 1 2
0 0 0 0 0 0 0 0 0 0 0 0 0 0 0 0 0 0 0 0 0 0 0 2 5 7 7 6 5 5 5 4 3 3 2 1 0 0 0 0 0 0 0 0 0 0 0 1 2
0 0 0 0 0 0 0 0 0 0 0 0 0 0 0 0 0 0 0 0 0 0 0 1 3 5 7 6 5 4 4 4 3 3 3 1 0 0 0 0 0 0 0 1 1 1 0 0 1
0 0 0 0 0 0 0 0 0 0 0 0 0 0 0 0 0 0 0 0 0 0 0 1 3 4 6 7 5 4 3 3 2 2 2 1 1 1 1 0 0 0 0 1 1 1 0 0 0
0 0 0 0 0 0 0 0 0 0 0 0 0 0 0 0 1 0 0 0 0 0 0 1 3 4 4 5 4 3 3 2 1 1 1 1 1 2 1 0 0 0 0 0 1 0 0 0 0
0 0 0 0 0 0 0 0 0 0 0 0 0 0 0 0 0 0 0 0 1 2 1 1 3 3 3 4 3 3 3 2 1 0 0 0 1 2 1 0 0 0 0 0 0 0 0 0 0
0 0 0 0 0 0 0 0 0 0 0 0 0 0 0 0 0 0 0 1 3 3 3 2 2 3 3 3 3 2 2 2 1 0 0 0 1 1 0 0 0 0 0 0 0 0 1 1 1
0 0 0 0 0 0 0 0 0 0 0 0 0 0 0 0 0 0 0 1 3 3 3 3 3 3 3 2 1 1 1 1 1 1 0 0 0 0 0 0 0 0 0 0 0 0 1 1 1
0 0 0 0 0 0 0 0 0 0 0 0 0 0 0 0 0 0 0 1 2 2 2 3 3 3 2 1 0 0 0 0 0 0 0 0 0 0 0 0 0 0 0 0 0 0 0 0 0
0 0 0 0 0 0 0 0 0 0 0 0 0 0 0 0 0 0 0 0 1 1 2 3 3 2 1 0 0 0 0 0 0 0 0 0 0 0 0 0 0 0 0 0 0 0 0 0 0
0 0 0 0 0 0 0 0 0 0 0 0 0 0 0 0 0 0 0 0 0 1 2 3 2 1 0 0 0 0 0 0 0 0 1 1 1 0 0 0 0 0 0 0 0 0 0 0 0
0 0 0 0 0 0 0 0 0 0 0 0 0 0 0 0 0 0 0 0 0 0 1 1 2 1 0 0 0 0 0 0 0 1 2 2 2 1 0 1 1 0 0 0 0 0 0 0 0
0 0 0 0 0 0 0 0 0 0 0 0 0 0 0 0 0 0 0 0 0 0 0 1 2 2 1 0 0 0 0 1 1 3 3 3 3 1 1 2 2 1 0 0 0 0 0 0 0
0 0 0 0 0 0 0 0 0 0 0 0 0 0 0 0 0 0 0 0 0 0 0 1 2 2 1 0 0 0 1 2 3 4 3 3 3 3 2 2 2 2 1 1 0 0 0 0 0
0 0 0 0 0 0 0 0 0 0 0 0 0 0 0 0 0 0 0 0 0 0 0 0 1 1 0 0 0 0 1 2 3 3 2 2 3 3 3 2 2 3 3 2 1 0 0 0 0
0 0 0 0 0 0 0 0 0 0 0 0 0 0 0 0 0 0 0 0 0 0 0 0 0 0 0 0 0 0 0 1 2 2 2 1 1 2 2 2 2 2 3 2 1 0 0 0 0
0 0 0 0 0 0 0 0 0 0 0 0 0 0 0 0 0 0 0 0 0 0 0 0 0 0 0 0 0 0 0 0 1 1 1 0 0 1 1 1 1 1 2 1 0 0 0 0 0
0 0 0 0 0 0 0 0 0 0 0 0 0 0 0 0 0 0 0 0 0 0 0 0 0 0 0 0 0 0 0 0 0 0 0 0 0 0 0 0 0 0 0 0 0 0 0 0 0
0 0 0 0 0 0 0 0 0 0 0 0 0 0 0 0 0 0 0 0 0 0 0 0 0 0 0 0 0 0 0 0 0 0 0 0 0 0 0 0 0 0 0 0 0 0 0 0 0
0 0 0 0 0 0 0 0 0 0 0 0 0 0 0 0 0 0 0 0 0 0 0 0 0 0 0 0 0 0 0 0 0 0 0 0 0 0 0 0 0 0 0 0 0 0 0 0 0
0 0 0 0 0 0 0 0 0 0 0 0 0 0 0 0 0 0 0 0 0 0 0 0 0 0 0 0 0 0 0 0 0 0 0 0 0 0 0 0 0 0 0 0 0 0 0 0 0
0 0 0 0 0 0 0 0 0 0 0 0 0 0 0 0 0 0 0 0 0 0 0 0 0 0 0 0 0 0 0 0 0 0 0 0 0 0 0 0 0 0 0 0 0 0 0 0 0
0 0 0 0 0 0 0 0 0 0 0 0 0 0 0 0 0 0 0 0 0 0 0 0 0 0 0 0 0 0 0 0 0 0 0 0 0 0 0 0 0 0 0 0 0 0 0 0 0
0 0 0 0 0 0 0 0 0 0 0 0 0 0 0 0 0 0 0 0 0 0 0 0 0 0 0 0 0 0 0 0 0 0 0 0 0 0 0 0 0 0 0 0 0 0 0 0 0
0 0 0 0 0 0 0 0 0 0 0 0 0 0 0 0 0 0 0 0 0 0 0 0 0 0 0 0 0 0 0 0 0 0 0 0 0 0 0 0 0 0 0 0 0 0 0 0 0
0 0 0 0 0 0 0 0 0 0 0 0 0 0 0 0 0 0 0 0 0 0 0 0 0 0 0 0 0 0 0 0 0 0 0 0 0 0 0 0 0 0 0 0 0 0 0 0 0
0 0 0 0 0 0 0 0 0 0 0 0 0 0 0 0 0 0 0 0 0 0 0 0 0 0 0 0 0 0 0 0 0 0 0 0 0 0 0 0 0 0 0 0 0 0 0 0 0
0 0 0 0 0 0 0 0 0 0 0 0 0 0 0 0 0 0 0 0 0 0 0 0 0 0 0 0 0 0 0 0 0 0 0 0 0 0 0 0 0 0 0 0 0 0 0 0 0
0 0 0 0 0 0 0 0 0 0 0 0 0 0 0 0 0 0 0 0 0 0 0 0 0 0 0 0 0 0 0 0 0 0 0 0 0 0 0 0 0 0 0 0 0 0 0 0 0
0 0 0 0 0 0 0 0 0 0 0 0 0 0 0 0 0 0 0 0 0 0 0 0 0 0 0 0 0 0 0 0 0 0 0 0 0 0 0 0 0 0 0 0 0 0 0 0 0
Wind_Speed
11 8 5 2 1 3 5 2 1 2 3 4 5 5 5 6 5 5 2 6 6 4 5 4 4 4 5 5 5 6 6 6 6 6 7 7 8 8 8 8 9 9 9 10 10 11 11 12 12
8 6 2 2 3 4 3 1 2 3 4 4 4 4 4 5 6 5 4 5 5 4 5 4 5 5 4 5 5 5 5 5 5 6 6 7 7 7 7 8 8 9 9 9 10 10 11 11 11
7 5 2 2 3 4 1 3 4 4 4 3 3 4 4 4 5 4 4 4 4 5 5 5 5 5 5 4 5 5 4 5 5 5 6 6 6 7 7 7 8 8 9 9 10 10 11 11 10
3 2 3 3 5 2 1 1 2 2 2 3 3 4 4 6 4 4 4 4 4 5 5 5 6 5 5 5 4 4 4 4 4 5 5 5 5 6 7 7 8 8 8 9 9 10 10 10 10
3 2 4 5 6 2 2 2 2 1 2 2 3 3 4 4 6 6 5 4 4 4 4 4 6 6 5 5 5 4 4 4 4 4 4 4 5 6 6 7 7 8 8 8 9 10 10 10 9
3 3 4 6 6 3 1 2 2 1 2 3 2 1 4 5 7 5 5 5 4 4 4 4 5 5 5 5 4 4 4 4 4 4 4 4 4 6 6 7 7 7 8 8 8 10 10 9 9
3 3 5 6 4 3 1 1 1 1 2 2 3 1 4 5 5 4 4 4 4 4 4 3 3 4 5 5 5 4 4 4 4 4 4 4 4 5 5 6 6 7 7 8 8 9 9 9 8
3 3 5 5 4 2 2 2 2 4 2 4 4 2 2 3 4 3 3 4 4 5 4 3 3 3 3 2 4 4 4 4 4 4 3 3 3 4 5 5 5 6 7 8 8 8 8 8 7
3 3 4 3 2 1 3 2 3 3 3 3 3 4 4 4 4 4 4 4 5 5 4 3 3 3 2 1 2 3 2 3 3 2 2 2 1 2 2 4 5 5 6 7 7 7 7 6 6
1 2 3 3 4 3 3 2 2 0 1 1 2 4 4 4 3 3 3 3 3 4 4 3 3 3 3 2 1 1 1 1 1 1 1 1 1 1 2 4 4 5 5 5 5 5 5 4 2
0 1 1 4 6 4 2 1 2 2 2 1 0 2 2 2 2 1 1 1 1 2 3 4 3 3 3 2 1 1 1 0 1 1 2 1 1 1 2 1 2 3 3 2 3 3 2 2 2
0 1 2 3 4 4 2 2 2 2 2 4 3 2 2 1 0 1 1 1 2 2 3 3 3 3 3 2 2 1 1 1 1 1 2 1 1 1 1 1 1 2 1 2 1 1 2 2 4
2 1 1 1 2 2 2 2 2 3 2 3 2 2 1 1 0 1 1 1 2 2 2 3 3 3 3 2 2 2 1 1 0 1 1 1 1 1 1 1 1 1 1 2 2 1 2 3 3
1 1 0 0 1 1 2 3 3 4 1 0 0 0 0 1 1 1 1 2 2 2 2 2 2 3 3 2 2 2 1 1 1 1 1 1 1 0 1 1 1 1 1 1 2 2 2 2 3
1 1 2 3 3 1 2 4 5 3 1 1 1 1 0 0 1 1 1 2 2 2 2 2 2 3 2 2 2 1 1 1 0 0 1 1 1 0 1 1 1 1 1 1 2 3 3 3 3
3 3 3 2 2 2 1 6 2 2 3 3 3 2 1 1 0 0 1 1 2 2 2 2 2 2 2 2 1 1 0 0 0 0 0 1 1 1 1 1 1 1 1 1 2 3 3 3 3
2 3 3 1 2 1 3 5 2 1 3 4 4 3 2 1 1 1 1 1 1 2 2 2 2 2 2 2 1 1 0 1 1 1 1 0 1 0 1 1 1 1 2 2 2 2 3 3 3
2 4 4 2 1 2 5 7 4 3 4 5 4 4 3 2 1 1 1 2 2 2 2 2 2 2 1 1 1 1 1 1 1 1 1 1 0 0 1 1 2 2 2 2 2 3 3 3 3
4 5 6 5 2 3 7 9 7 4 4 5 4 3 2 2 0 2 2 2 2 2 2 2 2 1 1 1 0 0 0 0 0 0 1 1 1 0 0 1 1 2 3 3 3 3 4 3 3
4 5 5 4 2 4 7 10 6 5 4 3 3 2 2 2 1 2 2 3 3 3 2 1 2 2 1 1 1 1 1 1 1 0 0 0 1 1 0 1 1 1 2 3 3 3 3 2 2
3 3 5 6 6 5 5 8 4 3 2 2 1 1 1 0 1 0 1 2 2 3 3 2 2 2 2 2 1 1 1 1 0 0 0 0 0 0 0 0 1 1 2 4 4 4 4 3 2
4 3 4 5 5 4 2 6 4 3 2 1 1 1 1 1 0 0 1 1 2 3 3 3 2 2 2 1 1 0 1 1 1 1 1 0 0 0 0 0 1 1 2 3 4 3 3 5 4
2 4 5 5 4 5 4 5 7 2 2 2 2 1 1 1 0 0 1 1 2 2 3 3 2 2 2 2 1 1 1 1 1 1 1 1 0 0 0 0 0 1 1 3 3 3 4 4 4
3 4 4 3 1 5 5 5 6 2 3 2 1 1 1 1 1 1 2 2 2 2 2 3 3 3 3 2 1 1 1 1 1 1 1 1 1 0 0 0 0 0 1 2 2 3 5 4 4
1 2 2 2 2 6 2 4 7 2 1 0 1 1 1 0 1 1 1 2 2 2 2 2 3 3 3 3 2 2 2 2 3 2 2 2 1 1 1 1 0 0 1 1 2 2 3 4 5
2 1 2 3 4 3 2 6 5 2 2 2 2 1 2 1 1 1 1 1 1 1 2 2 3 3 3 3 3 3 2 1 1 1 2 2 2 1 2 1 1 1 1 1 2 2 2 3 4
1 2 1 1 4 5 6 5 2 1 2 2 1 1 2 2 1 1 1 1 1 1 1 2 3 3 3 3 3 3 2 2 1 1 1 1 1 1 2 2 2 2 1 1 1 2 2 3 3
1 0 1 2 3 6 6 5 4 2 2 2 1 1 2 2 2 2 2 2 1 1 2 2 2 3 3 3 3 3 3 2 1 1 1 1 1 1 2 2 2 2 2 2 2 1 2 3 3
3 2 3 3 4 4 5 6 1 2 1 1 2 2 2 2 2 2 2 2 2 2 2 2 2 3 3 3 3 3 3 2 2 1 1 1 1 1 2 2 2 2 2 2 2 2 2 3 3
3 4 5 5 6 5 5 9 1 2 1 0 2 2 2 2 2 2 2 2 2 2 2 2 2 3 3 3 3 3 3 2 2 2 1 1 1 1 1 2 2 2 2 2 3 3 3 3 4
Wind_Direction
307 283 264 264 249 231 238 240 69 64 45 29 26 32 40 29 26 90 73 37 27 55 90 93 82 88 87 86 83 80 78 76 78 79 78 76 76 78 78 80 84 86 86 86 84 82 82 81 80
297 292 266 241 230 231 227 176 105 66 67 42 33 36 57 60 57 77 43 18 28 56 81 77 77 78 85 89 88 85 82 81 81 80 79 77 78 80 79 79 80 88 89 88 86 85 85 83 80
279 268 257 233 231 236 221 67 82 99 89 67 48 42 45 53 52 48 24 14 37 56 69 67 69 75 76 82 90 92 90 86 84 81 80 78 77 79 82 79 77 82 90 90 89 88 88 85 81
273 239 246 242 238 260 297 15 76 104 104 65 74 89 74 50 40 39 28 23 43 57 66 70 62 64 68 70 83 92 96 92 87 82 81 79 80 81 79 77 77 80 88 95 96 94 90 87 84
245 240 226 231 233 228 309 22 77 98 124 77 55 80 87 61 53 49 35 32 44 52 64 78 59 57 58 67 73 76 89 90 90 86 86 85 86 87 85 81 81 83 87 94 102 99 95 90 87
246 240 234 229 217 198 233 27 7 64 88 63 50 79 97 65 49 35 34 29 44 50 58 78 60 54 51 52 62 70 74 80 80 80 85 86 84 88 87 86 86 87 90 90 99 102 99 95 90
266 251 248 255 231 203 167 82 4 356 81 54 0 60 104 49 43 35 37 30 40 50 56 65 60 57 48 47 42 53 70 74 75 72 72 73 76 80 88 88 88 91 92 93 92 100 101 96 91
302 286 256 255 244 230 75 70 29 23 64 51 17 30 84 40 37 48 48 36 35 35 40 46 43 48 42 38 41 35 54 71 76 75 70 72 86 89 86 86 87 92 94 95 95 96 101 98 91
296 255 256 276 305 67 77 60 40 36 66 62 38 35 61 77 52 47 41 32 27 24 22 31 26 26 27 35 44 39 49 67 77 88 88 86 91 94 96 96 93 94 96 99 99 99 106 102 93
298 234 253 4 9 32 69 50 36 324 80 85 55 58 68 74 60 54 39 28 22 9 7 25 19 9 3 15 44 35 27 86 66 60 70 75 71 87 96 108 100 94 96 103 102 100 105 106 98
27 228 352 19 10 9 39 36 20 284 270 313 91 105 80 69 58 40 24 15 23 16 11 13 8 359 359 353 358 354 12 42 74 53 40 45 79 91 89 108 107 101 98 95 101 96 93 99 94
154 350 13 19 13 3 360 344 335 310 331 4 17 109 104 96 52 343 346 351 13 12 6 9 7 0 352 354 351 350 18 13 70 56 47 47 64 88 107 110 115 113 115 113 110 119 87 89 90
194 218 75 39 24 11 356 309 300 291 327 5 22 75 114 142 36 14 8 13 21 3 357 8 8 358 351 357 344 4 358 24 49 104 65 49 64 90 92 123 117 118 116 127 130 115 101 83 91
74 96 324 279 288 297 294 278 264 263 269 273 247 166 117 105 48 16 1 9 7 356 348 0 6 360 354 358 354 345 355 358 19 65 75 63 54 88 122 121 126 124 141 146 139 126 108 91 87
132 203 229 224 206 209 314 268 230 239 214 237 254 264 200 114 51 355 8 8 350 345 350 1 2 4 3 2 351 356 359 359 21 357 96 90 64 73 125 134 129 125 132 130 128 118 107 102 90
215 228 230 177 172 140 214 262 233 175 186 236 249 251 233 212 214 332 21 11 353 353 353 357 359 0 3 0 346 345 20 13 16 10 122 121 101 90 125 144 140 133 123 124 130 128 116 109 99
204 258 259 205 165 189 225 263 270 171 205 236 236 236 240 240 272 342 30 32 11 357 350 352 357 0 6 360 355 357 36 60 35 16 355 82 97 99 116 147 145 145 132 127 126 127 131 128 115
292 290 298 289 191 273 253 260 261 227 228 242 238 229 236 243 260 14 26 33 20 6 347 354 359 6 15 13 12 31 59 50 49 34 2 2 70 312 125 133 154 149 137 132 132 129 119 126 126
313 305 302 306 326 293 267 270 272 265 234 241 246 244 246 260 304 54 39 37 21 6 353 352 345 354 19 357 332 285 88 345 19 24 18 21 19 337 115 123 157 154 147 150 142 136 127 119 128
305 302 299 306 342 306 283 277 266 253 237 228 243 263 280 308 4 36 29 22 7 348 339 345 342 333 318 312 303 255 195 220 215 244 27 51 48 18 25 144 165 181 156 153 153 141 131 132 143
300 299 306 310 312 268 279 284 242 237 227 227 227 264 312 317 212 17 15 8 359 349 337 328 330 332 344 344 359 32 42 33 5 326 354 351 336 69 48 252 195 197 173 172 172 162 147 155 174
290 334 313 309 307 289 279 293 270 251 243 267 306 356 335 332 6 50 24 357 352 344 339 340 345 348 350 354 340 202 214 229 242 239 207 216 289 357 78 328 233 205 186 178 182 174 159 155 171
296 327 303 281 271 289 250 253 275 221 269 265 253 266 278 271 260 46 34 360 8 359 353 344 347 344 343 342 313 271 250 245 241 220 165 155 162 28 41 151 197 211 191 183 181 175 166 167 170
324 308 283 259 238 261 229 215 274 218 240 277 270 268 303 10 5 24 38 28 17 10 5 360 351 341 339 335 319 271 248 244 225 206 189 183 181 213 294 220 195 216 216 182 184 184 178 176 176
340 4 340 306 230 243 207 220 251 230 113 94 274 309 335 45 52 24 27 359 350 360 359 358 354 338 334 332 321 300 272 240 225 210 200 189 186 209 223 210 220 235 241 217 179 179 189 185 183
239 178 189 252 271 293 266 239 244 140 83 60 62 43 11 9 13 341 324 331 329 343 349 346 347 343 335 331 323 318 306 263 238 231 219 201 204 205 208 206 213 227 227 228 198 178 195 199 196
217 223 243 255 281 279 255 249 250 63 33 38 38 29 344 339 339 321 327 333 326 325 324 331 337 340 335 329 325 320 321 308 288 259 246 219 197 195 191 194 201 212 216 218 214 197 197 203 203
266 210 126 188 255 268 265 249 247 241 264 308 324 311 310 319 318 322 332 342 345 347 343 345 340 335 335 336 329 323 327 320 310 299 265 248 217 191 188 193 200 207 209 211 211 206 206 203 206
179 196 210 230 239 247 273 263 218 172 191 239 262 286 298 303 299 309 322 335 349 1 4 350 342 343 342 338 332 328 327 326 323 308 296 287 272 226 209 201 202 212 217 212 205 212 209 211 215
197 204 185 204 242 233 254 266 246 134 155 243 301 313 313 302 306 316 325 344 350 344 344 342 340 342 337 335 330 321 318 319 320 310 302 294 276 260 235 216 205 217 225 220 210 214 215 214 217